Location: Canet
(43.3261°N, 5.3723°E)
Time: 19:32:28
(UTC+00:00)

Cosmos 1689 Rocket - Pass Details

Date: 24 January 2021
Orbit: 352 x 366 km, 97.5° (Epoch: 08 March)

Event Time Altitude Azimuth Distance (km) Brightness Sun altitude
Exits shadow 18:47:06 31° 286° (WNW) 649 3.7 -23.0°
Drops below altitude 10° 18:49:37 10° 223° (SW) 1,324 5.4 -23.5°
Sets 18:51:38 0° 212° (SSW) 2,161 6.4 -23.8°
